TimeEDT,TemperatureF,Dew PointF,Humidity,Sea Level PressureIn,VisibilityMPH,Wind Direction,Wind SpeedMPH,Gust SpeedMPH,PrecipitationIn,Events,Conditions,WindDirDegrees,DateUTC
12:25 AM,69.1,64.9,87,30.12,10.0,ENE,6.9,-,N/A,,Overcast,70,2014-05-31 04:25:00
12:41 AM,68.0,64.9,90,30.12,10.0,ENE,4.6,-,N/A,,Mostly Cloudy,60,2014-05-31 04:41:00
12:56 AM,66.9,64.0,90,30.13,10.0,NNE,4.6,-,N/A,,Mostly Cloudy,30,2014-05-31 04:56:00
1:56 AM,66.0,64.0,93,30.13,10.0,North,4.6,-,N/A,,Clear,10,2014-05-31 05:56:00
2:56 AM,66.0,64.0,93,30.11,10.0,Calm,Calm,-,N/A,,Clear,0,2014-05-31 06:56:00
3:56 AM,64.9,64.0,97,30.10,10.0,North,4.6,-,N/A,,Clear,10,2014-05-31 07:56:00
4:56 AM,63.0,63.0,100,30.11,6.0,Calm,Calm,-,N/A,,Scattered Clouds,0,2014-05-31 08:56:00
5:12 AM,64.0,64.0,100,30.11,6.0,Calm,Calm,-,N/A,,Mostly Cloudy,0,2014-05-31 09:12:00
5:56 AM,64.9,64.0,97,30.12,10.0,NNE,5.8,-,N/A,,Overcast,20,2014-05-31 09:56:00
6:14 AM,64.9,64.0,97,30.13,10.0,NNE,5.8,-,N/A,,Overcast,20,2014-05-31 10:14:00
6:34 AM,64.9,64.0,97,30.13,10.0,NNE,5.8,-,N/A,,Overcast,20,2014-05-31 10:34:00
6:56 AM,66.0,64.0,93,30.14,10.0,NNE,3.5,-,N/A,,Overcast,20,2014-05-31 10:56:00
7:56 AM,66.9,64.0,90,30.14,10.0,NNE,5.8,-,N/A,,Scattered Clouds,20,2014-05-31 11:56:00
8:08 AM,66.9,64.0,90,30.14,10.0,NE,5.8,-,N/A,,Mostly Cloudy,40,2014-05-31 12:08:00
8:26 AM,66.9,64.9,93,30.14,10.0,NE,5.8,-,N/A,,Overcast,50,2014-05-31 12:26:00
8:51 AM,68.0,64.4,88,30.14,10.0,NE,4.6,-,N/A,,Overcast,40,2014-05-31 12:51:00
8:56 AM,68.0,64.0,87,30.14,10.0,North,4.6,-,N/A,,Overcast,360,2014-05-31 12:56:00
9:56 AM,71.1,63.0,75,30.14,10.0,NNE,9.2,-,N/A,,Mostly Cloudy,20,2014-05-31 13:56:00
10:56 AM,73.9,60.1,62,30.15,10.0,NNE,8.1,-,N/A,,Mostly Cloudy,30,2014-05-31 14:56:00
11:56 AM,78.1,59.0,52,30.15,10.0,NE,10.4,-,N/A,,Unknown,50,2014-05-31 15:56:00
12:56 PM,80.1,57.0,45,30.14,10.0,NE,10.4,-,N/A,,Clear,50,2014-05-31 16:56:00
1:56 PM,80.1,55.9,43,30.12,10.0,East,6.9,-,N/A,,Scattered Clouds,100,2014-05-31 17:56:00
2:56 PM,81.0,55.0,41,30.11,10.0,East,5.8,-,N/A,,Clear,100,2014-05-31 18:56:00
3:56 PM,81.0,57.0,44,30.11,10.0,Variable,5.8,-,N/A,,Partly Cloudy,0,2014-05-31 19:56:00
4:56 PM,77.0,61.0,58,30.12,9.0,SSE,9.2,-,N/A,,Mostly Cloudy,160,2014-05-31 20:56:00
5:56 PM,75.9,62.1,62,30.13,10.0,SSE,9.2,-,N/A,,Scattered Clouds,160,2014-05-31 21:56:00
6:56 PM,73.0,61.0,66,30.15,10.0,ESE,12.7,-,N/A,,Overcast,120,2014-05-31 22:56:00
7:56 PM,72.0,57.0,59,30.17,10.0,East,10.4,-,N/A,,Overcast,100,2014-05-31 23:56:00
8:56 PM,70.0,53.1,55,30.18,10.0,East,15.0,-,N/A,,Overcast,80,2014-06-01 00:56:00
9:56 PM,69.1,51.1,53,30.21,10.0,East,10.4,-,N/A,,Clear,100,2014-06-01 01:56:00
10:56 PM,68.0,51.1,55,30.23,10.0,East,11.5,-,N/A,,Clear,90,2014-06-01 02:56:00
11:56 PM,66.0,53.1,63,30.23,10.0,ESE,9.2,-,N/A,,Clear,110,2014-06-01 03:56:00